Miscellaneous Local Product
Issued by NWS North Platte, NE

Home | Current Version | Previous Version | Text Only | Print | Product List | Glossary On
Versions: 1 2 3 4 5 6 7 8 9 10 11 12 13 14 15 16 17 18 19 20 21 22 23 24 25 26 27 28 29 30 31 32 33 34 35 36 37 38 39 40 41 42 43 44 45 46 47 48 49 50
000
AXUS43 KLBF 292210
MISLBF


WESTERN AND NORTH CENTRAL NEBRASKA HOURLY WEATHER ROUNDUP
NATIONAL WEATHER SERVICE NORTH PLATTE NE
500 PM CDT MON SEP 29 2014

***STATIONS NOT REPORTING VARIABLES SUCH AS SKY/WEATHER OR
PRESSURE ARE PROVIDED BY THE NEBRASKA DEPARTMENT OF
ROADS...RAWS...AND APRS NETWORKS...AND ARE NOT UNDER
NATIONAL WEATHER SERVICE QUALITY CONTROL***

...OBSERVATIONS IN AND NEAR THE EASTERN PANHANDLE OF NEBRASKA...

CITY           SKY/WX    TMP DP  RH WIND       PRES   REMARKS
PINE RIDGE     CLOUDY    60  56  86 E7        29.92F
CHADRON        CLOUDY    53  53 100 N8        29.93F
ALLIANCE       CLOUDY    64  59  83 NE7       29.88F
SIDNEY         MOSUNNY   72  56  57 NE10      29.84F
WHITECLAY        N/A     59  55  85 CALM        N/A
RUSHVILLE        N/A     59  58  96 SE14        N/A
CRESCENT LAKE    N/A     71  58  64 E6          N/A
LISCO            N/A     76  58  52 W7          N/A
BIG SPRINGS      N/A     78  58  49 S13         N/A
$$

...OBSERVATIONS IN NORTH CENTRAL NEBRASKA...

CITY           SKY/WX    TMP DP  RH WIND       PRES   REMARKS
VALENTINE      CLOUDY    69  58  67 NE13      29.92F
THEDFORD       CLOUDY    79  53  40 SE25      29.90F
AINSWORTH      CLOUDY    73  59  62 E9        29.91F
O`NEILL        MOSUNNY   81  55  40 SE10      29.93F
ORD            MOSUNNY   79  53  40 SE12G21   29.91F
BROKEN BOW     MOSUNNY   81  53  37 S20G28    29.91F
SPRINGVIEW       N/A     73  62  68 NE5G13      N/A
ROSE             N/A     82  59  44 E13         N/A
NEWPORT          N/A     76  64  67 E17         N/A
SARGENT          N/A     78  55  45 SE3         N/A
COMSTOCK         N/A     86  55  33 S18         N/A
CHAMBERS         N/A     78  54  43 E5G13       N/A
EWING            N/A     82  59  45 S6          N/A
$$

...OBSERVATIONS IN SOUTHWEST NEBRASKA AND FAR NORTHEAST COLORADO...

CITY           SKY/WX    TMP DP  RH WIND       PRES   REMARKS
WRAY           FAIR      81  51  34 SE28G39   29.77F
HOLYOKE        FAIR      79  55  44 SE18G28   29.79F
IMPERIAL       MOSUNNY   81  52  36 SE30G39   29.81F
OGALLALA       PTSUNNY   76  60  56 SE15G24   29.81F
NORTH PLATTE   PTSUNNY   80  51  36 SE17G26   29.86F
MCCOOK         CLOUDY    81  52  36 SE21G29   29.86F
LEXINGTON      MOSUNNY   81  53  37 SE20G26   29.90F
PAXTON           N/A     79  55  42 SE20        N/A
SUTHERLAND       N/A     82  50  32 S18         N/A
BRADY            N/A     78  54  43 CALM        N/A
GOTHENBURG       N/A     80  49  33 SE12        N/A
CALLAWAY         N/A     77  57  49 SE17        N/A
$$

...SOME WEATHER OBSERVATIONS FROM AROUND THE REGION...

CITY           SKY/WX    TMP DP  RH WIND       PRES   REMARKS
DENVER         TSTM      53  50  89 NW21G26   29.88S FOG
LARAMIE        TSTM      49  42  77 SE13G29   30.01R
CHEYENNE       CLOUDY    60  46  59 E15       29.92F
SCOTTSBLUFF    MOSUNNY   66  56  70 E8        29.88F
RAPID CITY     CLOUDY    50  49  96 CALM      29.96F
PIERRE         CLOUDY    66  55  67 E7        29.94F
WINNER         FAIR      65  59  81 E14       29.94F
SIOUX FALLS    MOSUNNY   69  58  67 E12       30.01F
OMAHA          MOSUNNY   83  56  39 SE7       29.96F
GRAND ISLAND   SUNNY     82  52  35 S13       29.94F
KANSAS CITY    MOSUNNY   81  58  45 CALM      29.98F
WICHITA        MOSUNNY   83  52  34 S13       29.94F
HAYS           PTSUNNY   82  54  36 S21       29.90F
LIBERAL        MOSUNNY   84  54  34 S24G30    29.91F
GOODLAND       MOSUNNY   81  53  37 S29G41    29.84F
$$



USA.gov is the U.S. government's official web portal to all federal, state and local government web resources and services.